[[{"header":{"parameterUnit":"m.s-1","parameterCategory":1,"la1":30.2991,"la2":30.254,"lo1":-89.0895,"lo2":-89.0444,"dy":0.0017,"dx":0.0017,"nx":28,"ny":28,"refTime":"2023-08-23T21:00:00:Z","depth":0,"parameterNumber":2,"parameterNumberName":"U-component_of_WINDS"},"data":[0,0,0,0,0,0,0,0,0,0,0,0,0,0,0,0,0,0,0,0,0,0,0,0,0,0,0,0,0,0,0,0,0,0,0,0,0,0,0,0,0,0,0,0,0,0,0,0,0,0,0,0,0,0,0,0,0,0,-1.0005,-1.0003,0,-0.9882,-0.9881,-0.9879,-0.9815,-0.9815,-0.9815,-0.9815,-0.9692,-0.9689,-0.9686,0,0,0,0,0,0,0,0,0,0,0,0,0,-1.0189,-1.0186,-1.0005,-1.0003,-1.0002,-0.9882,-0.9881,-0.9879,-0.9815,-0.9815,-0.9815,-0.9815,-0.9693,-0.9689,-0.9685,0,0,0,0,0,0,0,0,0,0,0,0,0,-1.0092,-1.0185,-1.0005,-0.9955,-0.995,-0.9883,-0.988,-0.9878,-0.9815,-0.9815,-0.9815,-0.9815,-0.9694,-0.969,-0.9685,-0.9658,0,0,-0.967,-0.9668,0,0,0,0,0,0,0,0,-1.0098,-1.0085,-0.9964,-0.9959,-0.9952,-0.9864,-0.99,-0.9805,-0.9815,-0.9866,-0.9815,-0.9815,-0.9749,-0.974,-0.9717,-0.9652,-0.9647,-0.967,-0.9667,-0.9665,-0.9663,0,0,0,0,0,0,0,-1.0104,-1.009,-0.9956,-0.9963,-0.9955,-0.9941,-0.9927,-0.9882,-0.981,-0.9862,-0.9857,-0.9843,-0.9746,-0.9722,-0.9714,-0.9645,-0.967,-0.9666,-0.9663,-0.9661,-0.9557,-0.9557,0,0,0,0,0,0,-1.0119,-1.0096,-0.996,-0.9952,-1.0026,-0.9938,-0.9922,-0.9892,-0.9811,-0.9798,-0.9844,-0.9841,-0.973,-0.972,-0.9709,-0.9675,-0.9665,-0.966,-0.9658,-0.9557,-0.9557,-0.9557,0,0,0,0,0,0,-1.0123,-1.0107,-0.9965,-1.0023,-1.0004,-0.9935,-0.9902,-0.989,-0.9866,-0.9797,-0.9784,-0.9832,-0.973,-0.9716,-0.9672,-0.967,-0.9658,-0.9654,-0.9557,-0.9557,-0.9557,-0.9605,0,0,0,0,0,0,-1.0128,-1.0109,-1.0096,-1.0023,-1.0001,-0.9928,-0.9901,-0.9888,-0.9858,-0.9853,-0.9782,-0.9771,-0.9729,-0.968,-0.9667,-0.9663,-0.965,-0.9557,-0.9557,-0.9557,-0.9603,-0.9607,-0.961,0,0,0,0,0,-1.0135,-1.0114,-1.0096,-1.008,-0.9984,-0.9928,-0.9915,-0.9867,-0.9858,-0.9846,-0.9802,-0.9773,-0.9672,-0.9676,-0.9661,-0.9655,-0.9556,-0.9557,-0.9557,-0.9602,-0.9606,-0.961,0,0,0,0,0,0,-1.0189,-1.0104,-1.0082,-1.0037,-0.999,-0.9917,-0.99,-0.9872,-0.9828,-0.9825,-0.9768,-0.9753,-0.9715,-0.9681,-0.9686,-0.9628,-0.9612,-0.9609,-0.9651,-0.9654,-0.9657,-0.9666,-0.9646,0,0,0,0,0,-1.0196,-1.0156,-1.0084,-1.0051,-1.0029,-0.9969,-0.9943,-0.991,-0.986,-0.984,-0.9792,-0.9746,-0.9704,-0.9677,-0.9635,-0.9599,-0.9584,-0.9588,-0.9591,-0.9594,-0.9593,-0.9574,-0.9576,-0.9558,-0.9558,-0.9558,0,0,-1.0208,-1.0157,-1.0135,-1.0061,-1.0021,-0.9983,-0.9953,-0.9913,-0.9885,-0.9834,-0.9789,-0.9754,-0.9698,-0.9659,-0.9639,-0.9629,-0.9595,-0.9595,-0.9598,-0.9594,-0.9575,-0.9577,-0.9578,-0.9558,-0.9558,-0.9558,0,0,-1.0213,-1.0169,-1.0138,-1.01,-1.004,-1.0001,-0.9994,-0.9926,-0.99,-0.9855,-0.9816,-0.9784,-0.9712,-0.9675,-0.9647,-0.9643,-0.9615,-0.9631,-0.9647,-0.963,-0.9632,-0.9633,-0.9633,-0.9634,-0.963,-0.963,-0.963,0,-1.0236,-1.0176,-1.0126,-1.009,-1.0059,-1.0012,-0.9982,-0.9947,-0.9877,-0.9858,-0.9848,-0.976,-0.9719,-0.9672,-0.9671,-0.965,-0.9642,-0.9638,-0.9635,-0.9636,-0.9636,-0.9636,-0.9636,-0.9632,-0.9632,-0.9631,-0.9631,0,-1.021,-1.017,-1.0152,-1.0086,-1.0054,-1.0021,-0.9968,-0.9942,-0.9914,-0.9877,-0.9834,-0.9784,-0.9732,-0.9718,-0.9689,-0.9668,-0.9665,-0.9646,-0.9629,-0.9641,-0.964,-0.964,-0.9635,-0.9634,-0.9634,-0.9633,0,0,-1.024,-1.015,-1.0145,-1.0116,-1.0048,-1.0017,-0.9984,-0.9933,-0.9913,-0.9868,-0.984,-0.9783,-0.9767,-0.9735,-0.9702,-0.9688,-0.9691,-0.9671,-0.9669,-0.9678,-0.9668,-0.9683,-0.9683,-0.9673,-0.9673,-0.9673,-0.9673,0,-1.0236,-1.0172,-1.0128,-1.0083,-1.0047,-1.0004,-0.9976,-0.9933,-0.9899,-0.9865,-0.9828,-0.9789,-0.9769,-0.975,-0.9734,-0.9694,-0.9688,-0.9693,-0.9648,-0.9647,-0.9663,-0.9682,-0.9696,-0.9699,-0.9672,-0.9672,-0.9672,0,-1.022,-1.0177,-1.0128,-1.0069,-1.0052,-1.0027,-0.9979,-0.9947,-0.9899,-0.9876,-0.9843,-0.981,-0.9777,-0.9764,-0.9718,-0.9723,-0.9703,-0.9681,-0.968,-0.9673,-0.966,-0.9677,-0.9698,-0.9699,-0.9671,-0.9671,-0.9671,0,-1.025,-1.0179,-1.0142,-1.0118,-1.0047,-1.0031,-1.0001,-0.9953,-0.9927,-0.9887,-0.987,-0.9826,-0.9802,-0.977,-0.9728,-0.9722,-0.9687,-0.967,-0.9669,-0.967,-0.9662,-0.9663,-0.9681,-0.9649,-0.9649,-0.9649,-0.9649,0,-1.0248,-1.022,-1.0154,-1.0131,-1.01,-1.0052,-1.0023,-0.999,-0.9949,-0.992,-0.9882,-0.9856,-0.9802,-0.9771,-0.9738,-0.9707,-0.9696,-0.9678,-0.967,-0.9681,-0.9684,-0.9667,-0.9666,-0.9649,-0.9649,-0.9649,-0.9649,0,-1.0274,-1.0228,-1.0185,-1.0123,-1.0107,-1.0087,-1.0035,-1.0012,-0.9978,-0.9943,-0.9932,-0.9879,-0.9841,-0.9796,-0.9743,-0.9722,-0.9694,-0.9681,-0.971,-0.9705,-0.9706,-0.9707,-0.9713,-0.9713,-0.9682,-0.9682,-0.9682,0,-1.0276,-1.0254,-1.019,-1.0169,-1.014,-1.0105,-1.0079,-1.0032,-1.0007,-0.9954,-0.9939,-0.9898,-0.9863,-0.9805,-0.9762,-0.9723,-0.9709,-0.9715,-0.9703,-0.9717,-0.9711,-0.9713,-0.9712,-0.9717,-0.9718,-0.9718,-0.9719,0,-1.0285,-1.0265,-1.0227,-1.0184,-1.0154,-1.0118,-1.008,-1.0065,-1.0012,-0.9986,-0.9947,-0.992,-0.9867,-0.9828,-0.9785,-0.9756,-0.973,-0.9723,-0.9721,-0.9733,-0.9751,-0.9743,-0.9718,-0.9723,-0.9722,-0.9722,-0.9722,-0.9722,-1.0299,-1.0279,-1.0232,-1.0193,-1.0161,-1.0128,-1.0104,-1.0069,-1.0035,-0.9988,-0.9964,-0.9926,-0.9884,-0.9822,-0.9795,-0.9767,-0.9757,-0.9754,-0.9753,-0.9753,-0.9757,-0.9756,-0.9759,-0.9759,-0.9758,-0.9758,-0.9758,0,-1.0307,-1.0276,-1.0241,-1.019,-1.0161,-1.0139,-1.0098,-1.0075,-1.0042,-1.0005,-0.9972,-0.993,-0.9893,-0.985,-0.9811,-0.9797,-0.9784,-0.9788,-0.9789,-0.9783,-0.9767,-0.9773,-0.98,-0.98,-0.98,-0.98,-0.98,-0.98,-1.0307,-1.0272,-1.0248,-1.0198,-1.0168,-1.013,-1.0109,-1.0079,-1.005,-1.0004,-0.9973,-0.9945,-0.9907,-0.9866,-0.9833,-0.9821,-0.9809,-0.9817,-0.9802,-0.9788,-0.9784,-0.9781,-0.9786,-0.9815,-0.9815,-0.9821,-0.9821,-0.9821]},{"header":{"parameterUnit":"m.s-1","parameterCategory":1,"la1":30.2991,"la2":30.254,"lo1":-89.0895,"lo2":-89.0444,"dy":0.0017,"dx":0.0017,"nx":28,"ny":28,"refTime":"2023-08-23T21:00:00:Z","depth":0,"parameterNumber":3,"parameterNumberName":"V-component_of_WINDS"},"data":[0,0,0,0,0,0,0,0,0,0,0,0,0,0,0,0,0,0,0,0,0,0,0,0,0,0,0,0,0,0,0,0,0,0,0,0,0,0,0,0,0,0,0,0,0,0,0,0,0,0,0,0,0,0,0,0,0,0,2.1405,2.1405,0,2.1367,2.1367,2.1366,2.136,2.136,2.1361,2.1361,2.1315,2.1314,2.1312,0,0,0,0,0,0,0,0,0,0,0,0,0,2.1466,2.1465,2.1405,2.1405,2.1404,2.1367,2.1367,2.1366,2.136,2.136,2.1361,2.1361,2.1316,2.1314,2.1312,0,0,0,0,0,0,0,0,0,0,0,0,0,2.1435,2.1465,2.1405,2.1397,2.1396,2.1367,2.1367,2.1366,2.136,2.136,2.1361,2.1361,2.1317,2.1314,2.1312,2.1288,0,0,2.1305,2.1304,0,0,0,0,0,0,0,0,2.1437,2.1433,2.1398,2.1397,2.1396,2.1369,2.1372,2.134,2.136,2.1373,2.1361,2.1362,2.1332,2.1329,2.132,2.1285,2.1283,2.1305,2.1303,2.1302,2.1302,0,0,0,0,0,0,0,2.1439,2.1434,2.139,2.1398,2.1396,2.1393,2.1389,2.1366,2.135,2.1372,2.1372,2.1368,2.1332,2.1323,2.1319,2.1283,2.1305,2.1303,2.1301,2.13,2.1226,2.1226,0,0,0,0,0,0,2.1444,2.1436,2.1391,2.1389,2.1418,2.1392,2.1387,2.1377,2.135,2.1347,2.1367,2.1367,2.1326,2.1322,2.1318,2.1287,2.1302,2.13,2.1299,2.1227,2.1226,2.1225,0,0,0,0,0,0,2.1445,2.144,2.1393,2.1412,2.1406,2.139,2.1379,2.1376,2.1367,2.1347,2.1343,2.1361,2.1327,2.1321,2.1296,2.1285,2.1299,2.1297,2.1227,2.1226,2.1226,2.1226,0,0,0,0,0,0,2.1447,2.144,2.1432,2.1412,2.1405,2.1373,2.1378,2.1375,2.1364,2.1364,2.134,2.1337,2.1326,2.1299,2.1293,2.1283,2.1295,2.1228,2.1227,2.1226,2.1227,2.1225,2.1224,0,0,0,0,0,2.1449,2.1432,2.1431,2.1426,2.1395,2.1372,2.1368,2.1359,2.1363,2.1354,2.1341,2.1337,2.1288,2.1297,2.129,2.1278,2.1229,2.1227,2.1226,2.1227,2.1226,2.1224,0,0,0,0,0,0,2.1447,2.1429,2.1428,2.1405,2.1391,2.1371,2.1359,2.1357,2.1339,2.1339,2.1327,2.1321,2.1297,2.1285,2.1295,2.1254,2.1258,2.1256,2.1262,2.126,2.1258,2.1261,2.1293,0,0,0,0,0,2.1445,2.143,2.1414,2.1395,2.1388,2.1375,2.1365,2.1359,2.1343,2.1336,2.1321,2.1304,2.1285,2.1272,2.1253,2.1226,2.122,2.1215,2.1213,2.1212,2.1209,2.1194,2.1191,2.1221,2.1221,2.1221,0,0,2.1438,2.1426,2.1417,2.1394,2.1382,2.1366,2.137,2.1352,2.1339,2.1332,2.1308,2.1297,2.1277,2.1251,2.1239,2.124,2.12,2.1211,2.121,2.1207,2.1192,2.119,2.1187,2.122,2.122,2.122,0,0,2.1418,2.1408,2.1391,2.138,2.1363,2.1355,2.1351,2.1333,2.1326,2.1303,2.1298,2.1282,2.1248,2.1234,2.1223,2.12,2.1195,2.1194,2.1185,2.1171,2.1168,2.1166,2.1157,2.1154,2.1191,2.1191,2.1191,0,2.141,2.1387,2.1382,2.1364,2.1354,2.1351,2.1333,2.1322,2.1299,2.1291,2.1294,2.1254,2.124,2.1211,2.1206,2.1197,2.119,2.1195,2.117,2.1167,2.1165,2.1156,2.1153,2.1191,2.1191,2.1191,2.1191,0,2.1379,2.1363,2.1351,2.1332,2.1321,2.1303,2.1293,2.1282,2.1278,2.1269,2.1245,2.1229,2.1207,2.12,2.1195,2.117,2.1172,2.1173,2.1177,2.1162,2.1154,2.115,2.1191,2.1191,2.1191,2.1191,0,0,2.1353,2.1334,2.1329,2.1321,2.1304,2.129,2.1272,2.1254,2.1244,2.1229,2.1212,2.1186,2.1188,2.1174,2.1168,2.1156,2.1138,2.1158,2.1157,2.1154,2.1108,2.1107,2.1103,2.1136,2.1135,2.1135,2.111,0,2.133,2.13,2.1295,2.1268,2.1253,2.1251,2.1236,2.1223,2.1215,2.1199,2.119,2.1171,2.1175,2.1167,2.1155,2.1142,2.1128,2.1144,2.1118,2.1118,2.1122,2.1099,2.1096,2.1074,2.1107,2.1106,2.1106,0,2.1297,2.1284,2.1256,2.1242,2.1236,2.1222,2.1205,2.1191,2.1176,2.1171,2.1158,2.1154,2.1134,2.1142,2.1113,2.1125,2.1114,2.1107,2.1106,2.1101,2.1109,2.1092,2.1066,2.1062,2.11,2.1101,2.1101,0,2.1279,2.1255,2.1235,2.1228,2.1212,2.1202,2.1195,2.1181,2.117,2.1155,2.1148,2.113,2.1119,2.1105,2.1095,2.1102,2.1067,2.1074,2.1061,2.1061,2.1051,2.1052,2.1022,2.1048,2.1048,2.1048,2.1048,0,2.1252,2.1234,2.1228,2.1215,2.1196,2.1191,2.1171,2.1163,2.1152,2.1137,2.1134,2.112,2.1109,2.1093,2.1085,2.1063,2.1058,2.1052,2.105,2.1051,2.1052,2.1043,2.1043,2.1047,2.1047,2.1048,2.1048,0,2.1227,2.1223,2.1201,2.1189,2.1185,2.1171,2.116,2.1147,2.1141,2.1122,2.1117,2.1106,2.1087,2.1077,2.1052,2.1048,2.1022,2.1021,2.1027,2.1026,2.1013,2.1014,2.0974,2.0969,2.1,2.1,2.1,0,2.1209,2.1196,2.1184,2.1175,2.1168,2.1153,2.1143,2.1139,2.1128,2.1112,2.1101,2.1083,2.1068,2.1037,2.1025,2.1007,2.1005,2.0993,2.1002,2.1004,2.1003,2.1003,2.1001,2.099,2.099,2.0989,2.0989,0,2.1177,2.1176,2.1163,2.1149,2.1138,2.1127,2.1115,2.1108,2.1101,2.1089,2.1072,2.106,2.1038,2.1019,2.1,2.099,2.0988,2.0987,2.0983,2.0983,2.0986,2.0983,2.1021,2.0987,2.0987,2.0988,2.0988,2.0988,2.1153,2.1142,2.1132,2.1118,2.111,2.11,2.1088,2.1081,2.1067,2.105,2.1048,2.1029,2.1015,2.099,2.0981,2.0964,2.0967,2.0961,2.0959,2.0957,2.0956,2.0992,2.0961,2.0961,2.0961,2.0961,2.0961,0,2.1119,2.1114,2.1101,2.1087,2.1076,2.1079,2.1067,2.1057,2.1041,2.103,2.1016,2.0996,2.0979,2.0968,2.095,2.0939,2.0938,2.0934,2.0934,2.0931,2.0955,2.096,2.0936,2.0936,2.0936,2.0936,2.0936,2.0936,2.11,2.1081,2.108,2.1057,2.1051,2.1034,2.1027,2.1018,2.1009,2.0987,2.0974,2.0968,2.0957,2.0939,2.0923,2.092,2.0912,2.0909,2.0905,2.0927,2.093,2.0932,2.0937,2.0908,2.0908,2.0883,2.0883,2.0882]}]]